User: anonymous   Login
Location: Unspecified
(0.0000°N, 0.0000°E)
Time: 22:47:55
(UTC+00:00)
Language:

AMAZONIA 1 - Orbit

View from above orbital plane
View from above orbital plane
View from above satellite
View from above satellite

Ground track
Ground track

The orbit data is extracted from the following two-line orbital elements,

1 47699U 21015A   21207.63756868 -.00000044  00000-0  00000+0 0  9993
2 47699  98.4954 282.1887 0000707 138.3863 221.7400 14.40801763 21382
Epoch (UTC): 26 July 2021 15:18:05
Eccentricity: 0.0000707
inclination: 98.4954°
perigee height: 755 km
apogee height: 756 km
right ascension of ascending node: 282.1887°
argument of perigee: 138.3863°
revolutions per day: 14.40801763
mean anomaly at epoch: 221.7400°
orbit number at epoch: 2138

The dashed part of the orbit path shows where the satellite is in the earth's shadow,  

DLR